QLK223 YSSY-YMML

Flight info

Callsign QLK223
Flight time 1h 8m
Altitude 38000
Route MARUB7/34R WOL H65 LEECE Q29 ML
Aircraft A319/M-SDE3FGHIRWY/LB1

Departure

Time 2026-05-04 07:38
Airport Sydney Kingsford Smith International Airport (YSSY)

Arrival

Time 2026-05-04 08:46
Airport Melbourne Airport (YMML)
Time Latitude Longitude Altitude Speed Heading
2026-05-04 07:12 -33.93170 151.17912 31 ft 0 kts 189°
2026-05-04 07:16 -33.93156 151.17915 32 ft 2 kts 189°
2026-05-04 07:16 -33.93140 151.17918 31 ft 2 kts 186°
2026-05-04 07:17 -33.93124 151.17922 31 ft 2 kts 186°
2026-05-04 07:17 -33.93108 151.17926 31 ft 2 kts 188°
2026-05-04 07:17 -33.93092 151.17932 31 ft 2 kts 201°
2026-05-04 07:17 -33.93082 151.17945 31 ft 2 kts 291°
2026-05-04 07:18 -33.93084 151.17947 31 ft 0 kts 283°
2026-05-04 07:20 -33.93083 151.17942 31 ft 3 kts 282°
2026-05-04 07:20 -33.93071 151.17856 31 ft 15 kts 280°
2026-05-04 07:20 -33.93040 151.17721 31 ft 19 kts 294°
2026-05-04 07:22 -33.93643 151.17634 29 ft 11 kts 153°
2026-05-04 07:22 -33.93728 151.17682 23 ft 18 kts 163°
2026-05-04 07:23 -33.93856 151.17741 20 ft 21 kts 130°
2026-05-04 07:23 -33.93978 151.17801 23 ft 19 kts 165°
2026-05-04 07:23 -33.94115 151.17835 23 ft 21 kts 169°
2026-05-04 07:23 -33.94259 151.17874 25 ft 22 kts 168°
2026-05-04 07:24 -33.94417 151.17913 27 ft 24 kts 168°
2026-05-04 07:24 -33.94559 151.17892 24 ft 21 kts 167°
2026-05-04 07:24 -33.94706 151.17932 24 ft 23 kts 167°
2026-05-04 07:24 -33.94861 151.17971 22 ft 17 kts 168°
2026-05-04 07:25 -33.94979 151.18001 24 ft 17 kts 168°
2026-05-04 07:26 -33.95060 151.18340 29 ft 0 kts 77°
2026-05-04 07:28 -33.95060 151.18341 29 ft 1 kts 77°
2026-05-04 07:29 -33.95052 151.18390 25 ft 9 kts 78°
2026-05-04 07:29 -33.95043 151.18456 26 ft 9 kts 91°
2026-05-04 07:29 -33.95088 151.18519 26 ft 12 kts 159°
2026-05-04 07:29 -33.95137 151.18566 26 ft 15 kts 136°
2026-05-04 07:30 -33.95256 151.18687 27 ft 18 kts 152°
2026-05-04 07:30 -33.95381 151.18738 23 ft 21 kts 168°
2026-05-04 07:30 -33.95480 151.18764 21 ft 23 kts 167°
2026-05-04 07:30 -33.95629 151.18803 24 ft 19 kts 167°
2026-05-04 07:31 -33.95767 151.18839 24 ft 21 kts 168°
2026-05-04 07:31 -33.95915 151.18877 26 ft 22 kts 168°
2026-05-04 07:33 -33.97095 151.19141 20 ft 17 kts 164°
2026-05-04 07:33 -33.97123 151.19258 21 ft 13 kts 77°
2026-05-04 07:33 -33.97120 151.19271 22 ft 0 kts 78°
2026-05-04 07:35 -33.97120 151.19273 22 ft 1 kts 78°
2026-05-04 07:35 -33.97113 151.19311 21 ft 7 kts 76°
2026-05-04 07:35 -33.97079 151.19362 22 ft 10 kts 32°
2026-05-04 07:35 -33.97008 151.19362 21 ft 10 kts 347°
2026-05-04 07:36 -33.97000 151.19360 20 ft 0 kts 348°
2026-05-04 07:38 -33.92287 151.20506 2237 ft 189 kts 82°
2026-05-04 07:38 -33.92645 151.22092 2871 ft 206 kts 114°
2026-05-04 07:38 -33.93325 151.23639 3572 ft 211 kts 114°
2026-05-04 07:38 -33.93793 151.25302 4259 ft 209 kts 88°
2026-05-04 07:39 -33.93785 151.27046 4965 ft 211 kts 82°
2026-05-04 07:39 -33.93729 151.28900 5417 ft 234 kts 82°
2026-05-04 07:39 -33.93656 151.30966 5879 ft 259 kts 83°
2026-05-04 07:39 -33.93578 151.33241 6394 ft 284 kts 83°
2026-05-04 07:40 -33.93504 151.35670 7131 ft 296 kts 84°
2026-05-04 07:40 -33.93436 151.38172 8057 ft 301 kts 84°
2026-05-04 07:40 -33.93376 151.40698 9019 ft 305 kts 86°
2026-05-04 07:40 -33.93740 151.43244 9908 ft 316 kts 109°
2026-05-04 07:41 -33.94932 151.45516 10548 ft 333 kts 134°
2026-05-04 07:41 -33.96928 151.47050 10912 ft 351 kts 164°
2026-05-04 07:41 -33.99341 151.47362 11571 ft 351 kts 191°
2026-05-04 07:41 -34.01617 151.46428 12315 ft 345 kts 217°
2026-05-04 07:42 -34.03408 151.44550 13090 ft 342 kts 231°
2026-05-04 07:42 -34.05077 151.42491 13892 ft 345 kts 231°
2026-05-04 07:42 -34.06755 151.40400 14575 ft 349 kts 231°
2026-05-04 07:42 -34.08447 151.38287 15268 ft 352 kts 231°
2026-05-04 07:43 -34.10162 151.36151 15977 ft 356 kts 231°
2026-05-04 07:43 -34.11893 151.33999 16666 ft 359 kts 231°
2026-05-04 07:43 -34.13643 151.31829 17356 ft 363 kts 231°
2026-05-04 07:43 -34.15415 151.29626 18046 ft 367 kts 231°
2026-05-04 07:44 -34.17200 151.27405 18677 ft 370 kts 231°
2026-05-04 07:44 -34.18999 151.25166 19301 ft 372 kts 232°
2026-05-04 07:44 -34.20810 151.22914 19945 ft 374 kts 232°
2026-05-04 07:44 -34.22627 151.20654 20599 ft 376 kts 232°
2026-05-04 07:45 -34.24456 151.18382 21245 ft 378 kts 232°
2026-05-04 07:45 -34.26278 151.16119 21866 ft 380 kts 232°
2026-05-04 07:45 -34.28134 151.13810 22488 ft 382 kts 233°
2026-05-04 07:45 -34.29989 151.11493 23111 ft 384 kts 233°
2026-05-04 07:46 -34.31847 151.09165 23704 ft 386 kts 233°
2026-05-04 07:46 -34.33713 151.06821 24188 ft 389 kts 233°
2026-05-04 07:46 -34.35608 151.04447 24662 ft 392 kts 233°
2026-05-04 07:46 -34.37507 151.02069 25117 ft 395 kts 233°
2026-05-04 07:47 -34.39431 150.99662 25570 ft 398 kts 233°
2026-05-04 07:47 -34.41364 150.97241 26015 ft 401 kts 233°
2026-05-04 07:47 -34.43304 150.94807 26452 ft 404 kts 233°
2026-05-04 07:49 -34.57099 150.76959 29396 ft 419 kts 241°
2026-05-04 07:49 -34.58831 150.74095 29818 ft 422 kts 241°
2026-05-04 07:49 -34.60570 150.71205 30184 ft 425 kts 241°
2026-05-04 07:50 -34.62320 150.68295 30556 ft 428 kts 241°
2026-05-04 07:50 -34.64075 150.65382 30945 ft 429 kts 241°
2026-05-04 07:50 -34.65839 150.62450 31338 ft 429 kts 241°
2026-05-04 07:50 -34.67578 150.59560 31731 ft 430 kts 242°
2026-05-04 07:51 -34.69335 150.56641 32276 ft 426 kts 242°
2026-05-04 07:51 -34.71077 150.53748 32876 ft 422 kts 242°
2026-05-04 07:51 -34.72799 150.50886 33484 ft 418 kts 242°
2026-05-04 07:51 -34.74502 150.48047 34084 ft 413 kts 243°
2026-05-04 07:52 -34.76187 150.45233 34582 ft 410 kts 243°
2026-05-04 07:52 -34.77857 150.42440 35023 ft 407 kts 243°
2026-05-04 07:52 -34.79520 150.39653 35413 ft 406 kts 243°
2026-05-04 07:52 -34.81178 150.36872 35784 ft 405 kts 243°
2026-05-04 07:53 -34.82830 150.34102 36193 ft 404 kts 243°
2026-05-04 07:54 -34.94308 150.14812 38037 ft 409 kts 243°
2026-05-04 07:55 -34.97678 150.09111 38039 ft 421 kts 243°
2026-05-04 07:55 -35.01131 150.03282 38039 ft 426 kts 243°
2026-05-04 07:56 -35.04618 149.97395 38040 ft 427 kts 243°
2026-05-04 07:56 -35.08072 149.91544 38044 ft 428 kts 243°
2026-05-04 07:57 -35.11567 149.85607 38048 ft 428 kts 243°
2026-05-04 07:57 -35.15048 149.79691 38057 ft 429 kts 243°
2026-05-04 07:58 -35.18515 149.73803 38060 ft 430 kts 243°
2026-05-04 07:58 -35.21993 149.67868 38065 ft 430 kts 243°
2026-05-04 07:59 -35.25484 149.61900 38065 ft 431 kts 243°
2026-05-04 07:59 -35.28967 149.55934 38069 ft 431 kts 243°
2026-05-04 08:00 -35.32450 149.49964 38074 ft 432 kts 243°
2026-05-04 08:02 -35.46398 149.25925 38084 ft 433 kts 243°
2026-05-04 08:02 -35.49897 149.19890 38085 ft 434 kts 243°
2026-05-04 08:03 -35.53389 149.13855 38089 ft 434 kts 243°
2026-05-04 08:03 -35.56876 149.07798 38091 ft 434 kts 243°
2026-05-04 08:04 -35.60363 149.01731 38088 ft 434 kts 243°
2026-05-04 08:04 -35.63850 148.95648 38096 ft 435 kts 243°
2026-05-04 08:05 -35.67331 148.89581 38105 ft 434 kts 243°
2026-05-04 08:05 -35.70811 148.83505 38109 ft 435 kts 243°
2026-05-04 08:06 -35.74291 148.77417 38103 ft 435 kts 243°
2026-05-04 08:06 -35.77763 148.71321 38102 ft 434 kts 243°
2026-05-04 08:08 -35.91606 148.46932 38103 ft 435 kts 243°
2026-05-04 08:11 -36.07149 148.19208 38099 ft 437 kts 243°
2026-05-04 08:11 -36.12339 148.09921 38093 ft 438 kts 243°
2026-05-04 08:12 -36.15224 148.04757 38090 ft 438 kts 243°
2026-05-04 08:12 -36.18679 147.98570 38089 ft 438 kts 243°
2026-05-04 08:13 -36.22158 147.92336 38085 ft 439 kts 243°
2026-05-04 08:13 -36.25621 147.86118 38088 ft 439 kts 243°
2026-05-04 08:14 -36.29082 147.79890 38085 ft 439 kts 243°
2026-05-04 08:16 -36.42892 147.54862 38055 ft 440 kts 243°
2026-05-04 08:16 -36.46344 147.48584 38050 ft 440 kts 243°
2026-05-04 08:17 -36.49796 147.42296 38046 ft 440 kts 243°
2026-05-04 08:17 -36.53239 147.36003 38044 ft 441 kts 243°
2026-05-04 08:19 -36.67017 147.10695 38054 ft 442 kts 243°
2026-05-04 08:20 -36.70454 147.04350 38051 ft 441 kts 243°
2026-05-04 08:20 -36.73884 146.98018 37666 ft 438 kts 243°
2026-05-04 08:21 -36.75581 146.94886 37336 ft 435 kts 243°
2026-05-04 08:21 -36.77273 146.91758 37059 ft 436 kts 243°
2026-05-04 08:21 -36.78969 146.88618 36609 ft 436 kts 244°
2026-05-04 08:21 -36.80670 146.85463 36163 ft 438 kts 244°
2026-05-04 08:22 -36.82364 146.82312 35725 ft 438 kts 244°
2026-05-04 08:22 -36.84052 146.79161 35271 ft 438 kts 244°
2026-05-04 08:24 -36.96032 146.56784 31858 ft 448 kts 245°
2026-05-04 08:24 -36.97767 146.53542 31383 ft 450 kts 245°
2026-05-04 08:24 -36.99504 146.50290 30892 ft 451 kts 245°
2026-05-04 08:24 -37.01253 146.47009 30415 ft 453 kts 245°
2026-05-04 08:25 -37.03002 146.43718 29915 ft 455 kts 245°
2026-05-04 08:25 -37.04753 146.40417 29431 ft 456 kts 245°
2026-05-04 08:25 -37.06513 146.37098 28970 ft 458 kts 245°
2026-05-04 08:25 -37.08275 146.33778 28468 ft 457 kts 245°
2026-05-04 08:26 -37.10032 146.30466 27983 ft 454 kts 245°
2026-05-04 08:27 -37.22156 146.07524 24330 ft 456 kts 243°
2026-05-04 08:28 -37.23912 146.04164 23765 ft 459 kts 243°
2026-05-04 08:28 -37.25667 146.00817 23124 ft 457 kts 242°
2026-05-04 08:28 -37.27414 145.97499 22549 ft 454 kts 242°
2026-05-04 08:28 -37.29151 145.94204 21977 ft 450 kts 241°
2026-05-04 08:29 -37.30863 145.90943 21408 ft 445 kts 241°
2026-05-04 08:29 -37.32555 145.87713 20855 ft 442 kts 241°
2026-05-04 08:29 -37.34242 145.84489 20279 ft 438 kts 241°
2026-05-04 08:31 -37.45628 145.62737 16430 ft 413 kts 239°
2026-05-04 08:33 -37.57096 145.43150 13334 ft 350 kts 238°
2026-05-04 08:33 -37.58481 145.40775 13138 ft 322 kts 238°
2026-05-04 08:35 -37.66683 145.26516 10077 ft 265 kts 240°
2026-05-04 08:35 -37.67773 145.24608 9634 ft 269 kts 240°
2026-05-04 08:35 -37.68859 145.22715 9370 ft 264 kts 240°
2026-05-04 08:35 -37.69939 145.20836 9029 ft 262 kts 240°
2026-05-04 08:37 -37.76241 145.09877 7242 ft 255 kts 240°
2026-05-04 08:37 -37.77285 145.08059 6633 ft 257 kts 241°
2026-05-04 08:37 -37.78323 145.06244 6190 ft 251 kts 241°
2026-05-04 08:38 -37.79339 145.04477 5732 ft 246 kts 241°
2026-05-04 08:38 -37.80338 145.02737 5251 ft 243 kts 241°
2026-05-04 08:38 -37.81223 145.00955 5018 ft 237 kts 252°
2026-05-04 08:40 -37.82942 144.87383 3213 ft 183 kts 306°
2026-05-04 08:40 -37.81925 144.86589 3035 ft 172 kts 341°
2026-05-04 08:40 -37.80777 144.86378 2768 ft 161 kts 345°
2026-05-04 08:41 -37.79735 144.86193 2577 ft 139 kts 345°
2026-05-04 08:41 -37.78823 144.86029 2514 ft 126 kts 343°
2026-05-04 08:41 -37.77996 144.85877 2456 ft 117 kts 343°
2026-05-04 08:41 -37.77165 144.85721 2060 ft 117 kts 344°
2026-05-04 08:42 -37.76370 144.85570 1896 ft 113 kts 345°
2026-05-04 08:42 -37.75601 144.85425 1736 ft 111 kts 345°
2026-05-04 08:42 -37.74846 144.85282 1589 ft 109 kts 345°
2026-05-04 08:42 -37.74086 144.85137 1447 ft 110 kts 347°
2026-05-04 08:43 -37.73325 144.84994 1308 ft 112 kts 347°
2026-05-04 08:43 -37.72556 144.84848 1153 ft 112 kts 350°
2026-05-04 08:43 -37.71776 144.84702 1011 ft 114 kts 348°
2026-05-04 08:43 -37.71002 144.84556 844 ft 111 kts 353°
2026-05-04 08:44 -37.70212 144.84410 719 ft 120 kts 356°
2026-05-04 08:44 -37.69393 144.84262 605 ft 116 kts 354°
2026-05-04 08:46 -37.66799 144.83933 392 ft 0 kts 23°
2026-05-04 08:46 -37.66798 144.83934 393 ft 0 kts 22°
2026-05-04 08:47 -37.66796 144.83935 394 ft 1 kts 22°
2026-05-04 08:47 -37.66776 144.83945 399 ft 6 kts 22°
2026-05-04 08:47 -37.66724 144.83972 398 ft 9 kts 22°
2026-05-04 08:48 -37.66655 144.84006 401 ft 12 kts 20°
2026-05-04 08:48 -37.66577 144.84051 407 ft 14 kts 34°
2026-05-04 08:48 -37.66542 144.84147 409 ft 13 kts 82°
2026-05-04 08:48 -37.66529 144.84269 411 ft 15 kts 83°
2026-05-04 08:49 -37.66514 144.84409 411 ft 17 kts 81°
2026-05-04 08:50 -37.66673 144.84805 410 ft 14 kts 169°
2026-05-04 08:50 -37.66758 144.84838 410 ft 11 kts 139°
2026-05-04 08:51 -37.66758 144.84904 411 ft 2 kts 80°
2026-05-04 08:51 -37.66758 144.84905 411 ft 0 kts 80°